Location: Kellogg
(38.0159°N, 90.0546°W)
Time: 06:57:45
(UTC+00:00)

Courier 1B Rocket - Pass Details

Date: 13 September 2024
Orbit: 920 x 1201 km, 28.3° (Epoch: 12 October)

Event Time Altitude Azimuth Distance (km) Brightness Sun altitude
Rises 00:22:33 0° 251° (WSW) 3,830 9.5 -2.9°
Reaches altitude 10° 00:25:23 10° 244° (WSW) 2,919 8.5 -3.5°
Maximum altitude 00:31:59 39° 178° (S) 1,625 6.1 -4.8°
Drops below altitude 10° 00:38:58 10° 112° (ESE) 3,085 7.0 -6.1°
Enters shadow 00:39:57 - 110° (ESE) 3,394 7.2 -6.3°
